Home   Weather   St. Petersburg   Past weeks

Flag for USA Past Weather in St. Petersburg, Florida, USA — Yesterday and Last 2 Weeks

Now
72 °F

Clear.


Feels Like: 69 °F
Forecast: 72 / 83 °F
Wind: 5 mph from Northeast

Location: Whitted Airport

Current Time: Apr 23, 2017 at 6:22:21 am

Latest Report: Apr 23, 2017 at 5:53 am


Visibility: 10 mi

Pressure: 29.83 "Hg

Humidity: 91%

Dew Point: 69 °F

Location of St. PetersburgLocation

Past Weather in St. Petersburg — Graph

°F

St. Petersburg Temperature Yesterday

Maximum temperature yesterday: 81 °F (at 12:53 pm)
Minimum temperature yesterday: 71 °F (at 4:53 am)
Average temperature yesterday: 75 °F

High & Low Weather Summary for the Past Weeks

 TemperatureHumidityPressure
High84 °F (Apr 12, 3:53 pm)90% (Apr 23, 4:53 am)30.24 "Hg (Apr 23, 4:53 am)
Low62 °F (Apr 8, 6:53 am)25% (Apr 8, 2:53 pm)29.85 "Hg (Apr 23, 4:53 am)
Average74 °F65%30.10 "Hg
* Reported Apr 8 4:53 am — Apr 23 4:53 am, St. Petersburg, Weather by CustomWeather, © 2017

Note: Actual official high and low records may vary slightly from our data, if they occured in-between our weather recording intervals... More about our weather records

Advertising

St. Petersburg Weather History for the Previous 24 Hours

Scroll right to see more
 ConditionsComfort  
Time TempWeatherWind HumidityBarometerVisibility
4:53 am
Sun, Apr 23
73 °FPassing clouds.3 mph90%29.85 "Hg10 mi
3:53 am73 °FClear.3 mph88%29.86 "Hg10 mi
2:53 am73 °FPassing clouds.No wind88%29.86 "Hg10 mi
1:53 am74 °FPartly cloudy.No wind85%29.88 "Hg10 mi
12:53 am74 °FPassing clouds.No wind82%29.89 "Hg10 mi
11:53 pm
Sat, Apr 22
75 °FPassing clouds.3 mph79%29.89 "Hg10 mi
10:53 pm75 °FPassing clouds.3 mph79%29.88 "Hg10 mi
9:53 pm76 °FClear.No wind72%29.88 "Hg10 mi
8:53 pm77 °FClear.No wind66%29.86 "Hg10 mi
7:53 pm76 °FSunny.5 mph77%29.86 "Hg10 mi
6:53 pm77 °FSunny.6 mph71%29.87 "Hg10 mi
5:53 pm77 °FScattered clouds.8 mph71%29.88 "Hg10 mi
4:53 pm77 °FMostly cloudy.6 mph71%29.88 "Hg10 mi
3:53 pm76 °FLight rain. Broken clouds.9 mph80%29.90 "Hg10 mi
3:23 pm78 °FPartly sunny.13 mph69%29.91 "Hg10 mi
1:53 pm80 °FScattered clouds.9 mph64%29.93 "Hg10 mi
12:53 pm81 °FScattered clouds.5 mph62%29.95 "Hg10 mi
11:53 am79 °FScattered clouds.5 mph65%29.96 "Hg10 mi
10:53 am76 °FPassing clouds.3 mph72%29.96 "Hg10 mi
9:53 am74 °FPartly sunny.12 mph76%29.95 "Hg10 mi
8:53 am72 °FPartly sunny.8 mph78%29.96 "Hg10 mi
7:53 am71 °FSunny.13 mph81%29.94 "Hg10 mi
6:53 am71 °FClear.13 mph78%29.92 "Hg10 mi
Weather by CustomWeather, © 2017

See weather overviewHow to use our weather pages